CW3367 Weather Reports


Display with metric or nautical units.
time (UTC)temp
F
wind
direction
speed
MPH
gust
MPH
rain 1hr
in
rain 24hr
in
rain mn
in
humidity
%
barometer
mb
20260504191706 86 50 7.0 10.0 0.00 0.00 0.00 42 1015.1
20260504191207 87 9 1.0 10.0 0.00 0.00 0.00 42 1015.2
20260504190707 87 38 1.0 10.0 0.00 0.00 0.00 40 1015.2
20260504190207 86 9 4.0 9.0 0.00 0.00 0.00 41 1015.3
20260504185706 86 87 1.0 16.0 0.00 0.00 0.00 41 1015.4
20260504185206 86 64 1.0 16.0 0.00 0.00 0.00 41 1015.3
20260504184706 86 51 1.0 11.0 0.00 0.00 0.00 41 1015.5
20260504183206 87 80 10.0 11.0 0.00 0.00 0.00 40 1015.9
20260504182707 86 86 11.0 11.0 0.00 0.00 0.00 42 1016.0
20260504181706 85 40 1.0 8.0 0.00 0.00 0.00 43 1016.3
20260504181206 84 14 2.0 8.0 0.00 0.00 0.00 43 1016.3
20260504180706 84 69 2.0 9.0 0.00 0.00 0.00 43 1016.3
20260504175206 83 35 2.0 11.0 0.00 0.00 0.00 44 1016.5
20260504174706 83 27 4.0 11.0 0.00 0.00 0.00 43 1016.5
20260504174206 83 60 1.0 11.0 0.00 0.00 0.00 44 1016.5
20260504173707 84 60 9.0 12.0 0.00 0.00 0.00 43 1016.6
20260504173206 84 59 6.0 12.0 0.00 0.00 0.00 43 1016.6
20260504172706 84 56 10.0 10.0 0.00 0.00 0.00 43 1016.6
20260504172206 84 94 3.0 11.0 0.00 0.00 0.00 43 1016.7
20260504171706 84 87 5.0 11.0 0.00 0.00 0.00 44 1016.7
20260504171206 84 30 3.0 9.0 0.00 0.00 0.00 45 1016.7
20260504170706 83 45 3.0 7.0 0.00 0.00 0.00 45 1016.7
20260504170206 83 16 3.0 13.0 0.00 0.00 0.00 47 1016.7
20260504160207 82 65 3.0 14.0 0.00 0.00 0.00 45 1017.5
20260504150706 80 61 3.0 12.0 0.00 0.00 0.00 48 1017.8
20260504150206 79 355 4.0 12.0 0.00 0.00 0.00 49 1017.7
20260504141206 77 82 11.0 15.0 0.00 0.00 0.00 58 1017.6
20260504140706 77 56 7.0 15.0 0.00 0.00 0.00 58 1017.6
20260504140206 76 18 4.0 13.0 0.00 0.00 0.00 59 1017.6
20260504130706 73 30 3.0 10.0 0.00 0.00 0.00 66 1017.4
20260504130206 72 75 4.0 10.0 0.00 0.00 0.00 65 1017.3
20260504110706 62 38 1.0 3.0 0.00 0.00 0.00 82 1016.6
20260504110206 62 20 2.0 3.0 0.00 0.00 0.00 82 1016.7
20260504100206 63 39 1.0 4.0 0.00 0.01 0.00 82 1016.3
20260504081206 65 28 2.0 2.0 0.00 0.03 0.00 78 1016.1
20260504080707 65 24 1.0 2.0 0.00 0.03 0.00 78 1016.1
20260504080206 65 19 0.0 2.0 0.00 0.03 0.00 78 1016.3
20260504070206 66 24 0.0 2.0 0.00 0.04 0.00 78 1016.6
20260504060206 66 33 0.0 0.0 0.00 0.06 0.00 77 1016.7
20260504050706 67 55 1.0 3.0 0.00 0.06 0.00 76 1016.9
20260504050206 67 67 1.0 2.0 0.00 0.07 0.00 76 1017.0
20260504045206 67 67 0.0 2.0 0.00 0.07 0.00 76 1017.5
20260504044207 68 49 1.0 2.0 0.00 0.08 0.00 75 1017.5
20260504043706 68 66 1.0 1.0 0.00 0.08 0.00 74 1017.6
20260504043206 68 66 0.0 0.0 0.00 0.09 0.00 74 1017.9
20260504042707 68 66 0.0 0.0 0.00 0.09 0.00 74 1017.8
20260504042206 68 66 0.0 0.0 0.00 0.09 0.00 74 1017.7
20260504041707 68 66 0.0 0.0 0.00 0.09 0.00 74 1017.7
20260504041207 68 66 0.0 1.0 0.00 0.09 0.00 73 1017.8
20260504040707 68 66 0.0 2.0 0.00 0.09 0.00 73 1017.9
20260504040206 68 66 1.0 2.0 0.00 0.09 0.00 73 1017.9
20260504035707 69 76 0.0 2.0 0.00 0.09 0.00 73 1017.7
20260504035206 69 94 0.0 3.0 0.00 0.09 0.09 73 1017.8
20260504034707 69 79 1.0 3.0 0.00 0.09 0.09 73 1017.8
20260504034206 69 82 3.0 3.0 0.00 0.09 0.09 73 1017.7
20260504033707 69 61 1.0 2.0 0.00 0.09 0.09 73 1017.9
20260504032706 69 86 1.0 3.0 0.00 0.09 0.09 72 1017.7
20260504032207 69 73 2.0 4.0 0.00 0.09 0.09 72 1017.6
20260504031706 70 71 2.0 4.0 0.00 0.09 0.09 72 1017.6
20260504031207 70 80 1.0 4.0 0.00 0.09 0.09 72 1017.7
20260504030707 70 68 3.0 4.0 0.00 0.09 0.09 72 1017.4
20260504030207 70 48 2.0 4.0 0.00 0.09 0.09 72 1017.6
20260504025706 70 112 2.0 4.0 0.00 0.10 0.09 72 1017.6
20260504025206 70 53 1.0 6.0 0.00 0.11 0.09 72 1017.6
20260504024706 70 71 2.0 6.0 0.00 0.11 0.09 72 1017.6
20260504023707 70 74 1.0 5.0 0.00 0.11 0.09 71 1017.6
20260504023206 70 83 3.0 6.0 0.00 0.11 0.09 71 1017.4
20260504022206 70 72 1.0 6.0 0.00 0.11 0.09 71 1017.4
20260504020707 71 32 3.0 4.0 0.00 0.11 0.09 71 1017.3
20260504020206 71 74 1.0 4.0 0.00 0.11 0.09 71 1017.3
20260504015707 71 74 1.0 3.0 0.00 0.11 0.09 71 1017.2
20260504015207 71 49 2.0 4.0 0.00 0.11 0.09 71 1017.1
20260504014706 71 51 1.0 4.0 0.00 0.11 0.09 71 1017.2
20260504014207 71 53 1.0 4.0 0.00 0.11 0.09 70 1017.2
20260504013207 71 102 1.0 4.0 0.00 0.11 0.09 70 1016.9
20260504012706 71 73 3.0 4.0 0.00 0.11 0.09 70 1017.1
20260504012206 72 74 1.0 4.0 0.00 0.11 0.09 70 1017.0
20260504011206 72 72 2.0 5.0 0.00 0.11 0.09 69 1016.8
20260504005707 72 100 1.0 2.0 0.00 0.11 0.09 69 1016.4
20260504005206 73 60 2.0 3.0 0.00 0.11 0.09 68 1016.4
20260504004707 73 59 2.0 4.0 0.00 0.11 0.09 67 1016.4
20260504004206 73 57 2.0 4.0 0.00 0.11 0.09 67 1016.3
20260504003707 73 48 2.0 4.0 0.00 0.11 0.09 67 1016.3
20260504002707 74 56 2.0 4.0 0.00 0.11 0.09 66 1015.9
20260504002206 74 57 2.0 4.0 0.00 0.11 0.09 65 1016.0
20260504001706 74 67 1.0 4.0 0.00 0.11 0.09 65 1016.0
20260504000706 75 63 1.0 4.0 0.00 0.11 0.09 64 1015.9
20260504000206 75 74 1.0 4.0 0.00 0.11 0.09 64 1015.9
20260503235706 75 80 2.0 5.0 0.00 0.11 0.09 64 1015.9
20260503234707 76 113 3.0 6.0 0.00 0.11 0.09 63 1015.9
20260503234207 76 71 1.0 6.0 0.00 0.11 0.09 62 1015.8
20260503233707 76 80 1.0 6.0 0.00 0.11 0.09 62 1015.6
20260503233206 76 76 3.0 6.0 0.00 0.11 0.09 62 1015.6
20260503232706 76 51 3.0 5.0 0.00 0.11 0.09 61 1015.7
20260503232206 77 79 0.0 8.0 0.00 0.11 0.09 61 1015.6
20260503230706 77 52 4.0 7.0 0.00 0.11 0.09 60 1015.6
20260503230207 77 78 3.0 5.0 0.00 0.11 0.09 60 1015.6
20260503225706 77 34 1.0 7.0 0.00 0.11 0.09 60 1015.6
20260503225206 77 22 1.0 8.0 0.00 0.12 0.09 60 1015.5
20260503224706 78 78 7.0 9.0 0.00 0.12 0.09 60 1015.5
20260503224207 78 68 3.0 9.0 0.00 0.12 0.09 59 1015.5
20260503222706 78 80 0.0 7.0 0.00 0.13 0.09 59 1015.5
20260503222206 78 47 3.0 7.0 0.00 0.14 0.09 58 1015.5
20260503221707 79 105 4.0 6.0 0.00 0.15 0.09 58 1015.5
20260503221207 79 84 5.0 6.0 0.00 0.16 0.09 57 1015.5
20260503220706 79 54 3.0 7.0 0.00 0.16 0.09 57 1015.5
20260503220206 79 57 2.0 7.0 0.00 0.17 0.09 57 1015.4
20260503215706 79 92 6.0 8.0 0.00 0.17 0.09 58 1015.4
20260503214706 80 76 2.0 7.0 0.00 0.17 0.09 56 1015.5
20260503214207 80 53 3.0 7.0 0.00 0.17 0.09 55 1015.4
20260503213706 80 68 1.0 8.0 0.00 0.18 0.09 55 1015.5
20260503213206 80 63 3.0 8.0 0.00 0.18 0.09 54 1015.5
20260503212706 80 55 1.0 7.0 0.00 0.18 0.09 54 1015.5
20260503211707 82 75 4.0 12.0 0.00 0.19 0.09 52 1015.5
20260503211206 81 49 3.0 6.0 0.00 0.19 0.09 53 1015.3
20260503210707 81 62 2.0 5.0 0.00 0.19 0.09 53 1015.5
20260503205706 81 55 4.0 10.0 0.00 0.19 0.09 53 1015.6
20260503205207 82 17 2.0 10.0 0.00 0.19 0.09 53 1015.5
20260503204706 82 57 3.0 5.0 0.00 0.19 0.09 53 1015.6
20260503204207 81 41 1.0 8.0 0.00 0.19 0.09 52 1015.7
20260503203206 82 61 4.0 9.0 0.00 0.19 0.09 54 1015.9
20260503202707 82 87 5.0 9.0 0.00 0.19 0.09 53 1015.9
20260503202206 82 15 3.0 9.0 0.00 0.19 0.09 53 1015.9
20260503201706 82 71 4.0 8.0 0.00 0.19 0.09 53 1015.8
20260503201206 82 22 0.0 9.0 0.00 0.19 0.09 54 1015.9
20260503200706 82 58 3.0 10.0 0.00 0.20 0.09 54 1016.1
20260503200207 81 350 1.0 10.0 0.00 0.22 0.09 56 1016.1
20260503195207 80 49 4.0 8.0 0.00 0.38 0.09 57 1016.2
20260503194706 80 33 4.0 8.0 0.00 0.43 0.09 56 1016.3
20260503194207 81 37 2.0 9.0 0.00 0.43 0.09 56 1016.4
20260503193707 81 74 8.0 9.0 0.00 0.43 0.09 56 1016.5
20260503193207 80 340 0.0 7.0 0.00 0.43 0.09 58 1016.7
20260503192706 80 35 2.0 11.0 0.00 0.43 0.09 57 1016.7